Location: Newark
(43.6583°N, 1.6617°E)
Time: 15:54:13
(UTC+00:00)

Tiros 1 - Pass Details

Date: 30 August 2019
Orbit: 631 x 664 km, 48.4° (Epoch: 14 September)

Event Time Altitude Azimuth Distance (km) Brightness Sun altitude
Rises 02:43:53 0° 293° (WNW) 2,926 - -24.7°
Reaches altitude 10° 02:46:14 10° 289° (WNW) 2,019 - -24.4°
Maximum altitude 02:50:45 53° 213° (SSW) 787 - -23.8°
Exits shadow 02:53:10 25° 148° (SSE) 1,274 8.5 -23.4°
Drops below altitude 10° 02:55:17 10° 137° (SE) 2,028 9.7 -23.1°
Sets 02:57:40 0° 133° (SE) 2,941 10.6 -22.8°
